RYR84KK LEAM-EBCI

Flight info

Callsign RYR84KK
Flight time 2h 34m
Altitude 34000
Route AGIDO M192 ARPEX DCT BAZAS M192 BLN N865 VTB N867 RBO DCT OSTIX N867 DGO L176 LUSEM DCT LULUT DCT ADABI DCT BOKNO UN858 VANAD UN874 BAMES UT191 PODEM UN873 BAZOS DCT BELDI DCT VEKIN Z173 ARVOL
Aircraft B738/M-SDE3FGILRWY/SB1

Departure

Time 2026-04-29 08:34
Airport Almería Airport (LEAM)

Arrival

Time 2026-04-29 11:08
Airport Brussels South Charleroi Airport (EBCI)
Time Latitude Longitude Altitude Speed Heading
2026-04-29 08:17 36.84676 -2.37161 42 ft 0 kts 227°
2026-04-29 08:28 36.84671 -2.37167 42 ft 3 kts 221°
2026-04-29 08:28 36.84637 -2.37174 43 ft 8 kts 176°
2026-04-29 08:29 36.84617 -2.37118 44 ft 11 kts 71°
2026-04-29 08:29 36.84642 -2.37009 43 ft 15 kts 75°
2026-04-29 08:29 36.84630 -2.36917 45 ft 10 kts 132°
2026-04-29 08:29 36.84616 -2.36819 47 ft 14 kts 74°
2026-04-29 08:30 36.84647 -2.36689 48 ft 17 kts 73°
2026-04-29 08:30 36.84722 -2.36374 53 ft 19 kts 72°
2026-04-29 08:30 36.84761 -2.36222 51 ft 18 kts 72°
2026-04-29 08:31 36.84799 -2.36072 50 ft 18 kts 72°
2026-04-29 08:31 36.84835 -2.35928 58 ft 17 kts 73°
2026-04-29 08:31 36.84869 -2.35788 60 ft 16 kts 72°
2026-04-29 08:31 36.84902 -2.35654 57 ft 16 kts 73°
2026-04-29 08:32 36.84934 -2.35525 59 ft 15 kts 72°
2026-04-29 08:32 36.84945 -2.35399 61 ft 15 kts 106°
2026-04-29 08:32 36.84870 -2.35330 60 ft 14 kts 176°
2026-04-29 08:32 36.84797 -2.35392 62 ft 13 kts 246°
2026-04-29 08:33 36.84762 -2.35525 57 ft 28 kts 252°
2026-04-29 08:33 36.84633 -2.36047 54 ft 97 kts 252°
2026-04-29 08:33 36.84374 -2.37096 43 ft 153 kts 253°
2026-04-29 08:33 36.84061 -2.38449 531 ft 163 kts 253°
2026-04-29 08:34 36.83732 -2.39797 1287 ft 164 kts 251°
2026-04-29 08:34 36.83385 -2.41169 1912 ft 174 kts 252°
2026-04-29 08:34 36.82983 -2.42743 2207 ft 204 kts 252°
2026-04-29 08:34 36.82541 -2.44469 2683 ft 214 kts 252°
2026-04-29 08:35 36.82088 -2.46233 3354 ft 214 kts 252°
2026-04-29 08:35 36.81590 -2.48023 3970 ft 220 kts 243°
2026-04-29 08:35 36.80569 -2.49394 4800 ft 220 kts 210°
2026-04-29 08:35 36.79069 -2.49836 5496 ft 227 kts 179°
2026-04-29 08:36 36.77507 -2.49452 6232 ft 231 kts 166°
2026-04-29 08:36 36.75955 -2.48850 6910 ft 235 kts 165°
2026-04-29 08:36 36.74388 -2.48229 7582 ft 238 kts 165°
2026-04-29 08:36 36.72800 -2.47607 8219 ft 241 kts 163°
2026-04-29 08:37 36.71354 -2.46548 8382 ft 246 kts 132°
2026-04-29 08:37 36.70602 -2.44634 8449 ft 256 kts 98°
2026-04-29 08:37 36.70776 -2.42408 8467 ft 263 kts 73°
2026-04-29 08:37 36.71330 -2.40227 8445 ft 264 kts 71°
2026-04-29 08:38 36.71895 -2.38057 8430 ft 262 kts 69°
2026-04-29 08:38 36.72903 -2.36186 8443 ft 268 kts 34°
2026-04-29 08:38 36.74660 -2.35363 8715 ft 283 kts
2026-04-29 08:38 36.76618 -2.35659 9318 ft 287 kts 341°
2026-04-29 08:39 36.78444 -2.36681 10057 ft 289 kts 329°
2026-04-29 08:39 36.80210 -2.37999 10395 ft 307 kts 326°
2026-04-29 08:39 36.82076 -2.39484 10583 ft 329 kts 326°
2026-04-29 08:39 36.84042 -2.41056 11066 ft 339 kts 326°
2026-04-29 08:40 36.86047 -2.42637 11733 ft 343 kts 326°
2026-04-29 08:40 36.88082 -2.44221 12464 ft 346 kts 326°
2026-04-29 08:40 36.90142 -2.45813 13176 ft 350 kts 326°
2026-04-29 08:40 36.92221 -2.47411 13927 ft 353 kts 326°
2026-04-29 08:41 36.94329 -2.49027 14576 ft 357 kts 326°
2026-04-29 08:41 36.96462 -2.50660 15225 ft 362 kts 326°
2026-04-29 08:41 36.98623 -2.52313 15926 ft 366 kts 326°
2026-04-29 08:41 37.00808 -2.53985 16602 ft 370 kts 325°
2026-04-29 08:42 37.03018 -2.55677 17255 ft 375 kts 325°
2026-04-29 08:42 37.05257 -2.57391 17902 ft 379 kts 325°
2026-04-29 08:42 37.07520 -2.59126 18524 ft 383 kts 325°
2026-04-29 08:42 37.09802 -2.60875 19127 ft 386 kts 325°
2026-04-29 08:43 37.12099 -2.62638 19739 ft 388 kts 325°
2026-04-29 08:43 37.13629 -2.63811 20137 ft 390 kts 325°
2026-04-29 08:43 37.15951 -2.65596 20725 ft 393 kts 325°
2026-04-29 08:43 37.18288 -2.67393 21317 ft 396 kts 325°
2026-04-29 08:44 37.20657 -2.69218 21814 ft 402 kts 325°
2026-04-29 08:44 37.23049 -2.71060 22386 ft 405 kts 325°
2026-04-29 08:44 37.25454 -2.72912 22961 ft 407 kts 325°
2026-04-29 08:44 37.27875 -2.74780 23469 ft 410 kts 325°
2026-04-29 08:45 37.30310 -2.76658 23898 ft 412 kts 325°
2026-04-29 08:45 37.32757 -2.78549 24389 ft 413 kts 325°
2026-04-29 08:45 37.35207 -2.80444 24878 ft 414 kts 325°
2026-04-29 08:45 37.37669 -2.82348 25305 ft 415 kts 325°
2026-04-29 08:46 37.40132 -2.84254 25723 ft 418 kts 325°
2026-04-29 08:46 37.42563 -2.86252 26136 ft 418 kts 320°
2026-04-29 08:46 37.44829 -2.88539 26570 ft 419 kts 317°
2026-04-29 08:46 37.47069 -2.90923 26845 ft 424 kts 317°
2026-04-29 08:47 37.49331 -2.93339 27254 ft 426 kts 317°
2026-04-29 08:47 37.51602 -2.95739 27714 ft 427 kts 317°
2026-04-29 08:47 37.53893 -2.98131 28134 ft 429 kts 318°
2026-04-29 08:47 37.56201 -3.00528 28513 ft 431 kts 318°
2026-04-29 08:48 37.58523 -3.02937 28897 ft 433 kts 318°
2026-04-29 08:48 37.60842 -3.05350 29409 ft 431 kts 318°
2026-04-29 08:48 37.63123 -3.07729 30304 ft 419 kts 317°
2026-04-29 08:48 37.65336 -3.10040 31046 ft 410 kts 317°
2026-04-29 08:49 37.67531 -3.12339 31463 ft 410 kts 317°
2026-04-29 08:49 37.69736 -3.14652 31618 ft 416 kts 317°
2026-04-29 08:49 37.71969 -3.16994 31881 ft 418 kts 317°
2026-04-29 08:49 37.74194 -3.19324 32419 ft 412 kts 317°
2026-04-29 08:50 37.76386 -3.21607 33077 ft 405 kts 317°
2026-04-29 08:50 37.78549 -3.23859 33588 ft 402 kts 316°
2026-04-29 08:50 37.80701 -3.26103 33921 ft 402 kts 316°
2026-04-29 08:51 37.85059 -3.30661 33936 ft 408 kts 316°
2026-04-29 08:51 37.89415 -3.35220 33919 ft 402 kts 316°
2026-04-29 08:52 37.93706 -3.39721 33929 ft 402 kts 316°
2026-04-29 08:52 37.97992 -3.44228 33950 ft 404 kts 316°
2026-04-29 08:53 38.02328 -3.48795 33948 ft 406 kts 316°
2026-04-29 08:53 38.06682 -3.53387 33927 ft 408 kts 316°
2026-04-29 08:54 38.11044 -3.57990 33927 ft 408 kts 316°
2026-04-29 08:54 38.15989 -3.61563 33942 ft 422 kts 339°
2026-04-29 08:54 38.18910 -3.62212 33925 ft 432 kts 352°
2026-04-29 08:55 38.21932 -3.62070 33942 ft 436 kts 359°
2026-04-29 08:55 38.27996 -3.61394 33924 ft 438 kts 360°
2026-04-29 08:56 38.34059 -3.60705 33931 ft 437 kts 359°
2026-04-29 08:56 38.40126 -3.60079 33918 ft 437 kts 359°
2026-04-29 08:57 38.46196 -3.59484 33915 ft 437 kts 359°
2026-04-29 08:57 38.52268 -3.58897 33928 ft 437 kts 359°
2026-04-29 08:58 38.58332 -3.58306 33923 ft 437 kts 359°
2026-04-29 08:58 38.64358 -3.57714 33920 ft 438 kts
2026-04-29 08:59 38.70432 -3.57075 33920 ft 438 kts 359°
2026-04-29 08:59 38.76515 -3.56504 33925 ft 438 kts 359°
2026-04-29 09:00 38.82613 -3.55915 33918 ft 440 kts 359°
2026-04-29 09:00 38.88727 -3.55313 33928 ft 441 kts 360°
2026-04-29 09:01 38.94873 -3.54703 33926 ft 444 kts 360°
2026-04-29 09:01 39.01044 -3.54094 33914 ft 445 kts 360°
2026-04-29 09:02 39.07230 -3.53480 33932 ft 446 kts
2026-04-29 09:02 39.13385 -3.52872 33921 ft 447 kts
2026-04-29 09:03 39.19597 -3.52256 33917 ft 448 kts
2026-04-29 09:03 39.25812 -3.51640 33921 ft 448 kts
2026-04-29 09:04 39.32036 -3.51023 33917 ft 449 kts
2026-04-29 09:04 39.38282 -3.50402 33924 ft 450 kts
2026-04-29 09:05 39.44537 -3.49780 33923 ft 452 kts
2026-04-29 09:05 39.50808 -3.49156 33916 ft 453 kts
2026-04-29 09:06 39.57062 -3.48531 33920 ft 455 kts
2026-04-29 09:06 39.63387 -3.47891 33915 ft 456 kts
2026-04-29 09:07 39.69717 -3.47248 33913 ft 457 kts
2026-04-29 09:07 39.76063 -3.46604 33923 ft 458 kts
2026-04-29 09:08 39.82412 -3.45695 33905 ft 459 kts
2026-04-29 09:08 39.88725 -3.44379 33904 ft 459 kts
2026-04-29 09:09 39.95033 -3.43040 33891 ft 459 kts
2026-04-29 09:09 40.01341 -3.41747 33903 ft 459 kts
2026-04-29 09:10 40.07612 -3.40487 33901 ft 460 kts
2026-04-29 09:10 40.13934 -3.39219 33910 ft 460 kts
2026-04-29 09:11 40.20272 -3.37945 33907 ft 460 kts
2026-04-29 09:11 40.26610 -3.36667 33908 ft 461 kts
2026-04-29 09:12 40.32953 -3.35386 33912 ft 461 kts
2026-04-29 09:12 40.39302 -3.34100 33913 ft 461 kts
2026-04-29 09:13 40.45647 -3.32813 33919 ft 462 kts
2026-04-29 09:13 40.52007 -3.31521 33912 ft 462 kts
2026-04-29 09:14 40.58321 -3.30235 33915 ft 462 kts
2026-04-29 09:14 40.64685 -3.28937 33912 ft 463 kts
2026-04-29 09:15 40.71045 -3.27638 33912 ft 462 kts
2026-04-29 09:15 40.77404 -3.26337 33910 ft 462 kts
2026-04-29 09:16 40.83763 -3.25034 33913 ft 461 kts
2026-04-29 09:16 40.90107 -3.23678 33906 ft 462 kts 10°
2026-04-29 09:17 40.96438 -3.22238 33912 ft 462 kts 10°
2026-04-29 09:17 41.02770 -3.20796 33906 ft 462 kts 10°
2026-04-29 09:18 41.09074 -3.19371 33915 ft 462 kts 10°
2026-04-29 09:18 41.15417 -3.17940 33896 ft 462 kts 10°
2026-04-29 09:19 41.21772 -3.16506 33898 ft 463 kts 10°
2026-04-29 09:19 41.28132 -3.15067 33894 ft 463 kts 10°
2026-04-29 09:20 41.34483 -3.13622 33887 ft 463 kts 10°
2026-04-29 09:20 41.40844 -3.12175 33878 ft 464 kts 10°
2026-04-29 09:21 41.47213 -3.10725 33876 ft 464 kts 10°
2026-04-29 09:21 41.53537 -3.09284 33886 ft 464 kts 10°
2026-04-29 09:22 41.59924 -3.07839 33870 ft 465 kts 10°
2026-04-29 09:22 41.66316 -3.06392 33873 ft 466 kts 10°
2026-04-29 09:23 41.72735 -3.04936 33863 ft 467 kts
2026-04-29 09:23 41.79135 -3.03468 33876 ft 466 kts
2026-04-29 09:24 41.85483 -3.02003 33887 ft 465 kts
2026-04-29 09:24 41.91867 -3.00534 33885 ft 465 kts
2026-04-29 09:25 41.98237 -2.99065 33897 ft 464 kts
2026-04-29 09:25 42.04594 -2.97589 33889 ft 463 kts 10°
2026-04-29 09:26 42.10954 -2.96114 33883 ft 463 kts
2026-04-29 09:26 42.17303 -2.94643 33889 ft 463 kts
2026-04-29 09:27 42.23657 -2.93164 33900 ft 463 kts
2026-04-29 09:27 42.29979 -2.91689 33883 ft 464 kts
2026-04-29 09:28 42.36367 -2.90195 33882 ft 467 kts
2026-04-29 09:28 42.42736 -2.88454 33874 ft 467 kts 19°
2026-04-29 09:28 42.45721 -2.86739 33892 ft 465 kts 30°
2026-04-29 09:29 42.48463 -2.84437 33887 ft 463 kts 40°
2026-04-29 09:29 42.55648 -2.75787 33882 ft 461 kts 45°
2026-04-29 09:30 42.60402 -2.69938 33893 ft 462 kts 44°
2026-04-29 09:30 42.64385 -2.65093 33888 ft 463 kts 44°
2026-04-29 09:31 42.69198 -2.59260 33879 ft 463 kts 44°
2026-04-29 09:31 42.74003 -2.53430 33897 ft 463 kts 44°
2026-04-29 09:32 42.78815 -2.47575 33887 ft 464 kts 44°
2026-04-29 09:32 42.83615 -2.41720 33885 ft 463 kts 44°
2026-04-29 09:33 42.88399 -2.35872 33893 ft 462 kts 44°
2026-04-29 09:33 42.93174 -2.30020 33892 ft 462 kts 44°
2026-04-29 09:34 42.97945 -2.24164 33890 ft 461 kts 44°
2026-04-29 09:34 43.02707 -2.18289 33897 ft 461 kts 44°
2026-04-29 09:35 43.07473 -2.12387 33897 ft 462 kts 44°
2026-04-29 09:35 43.12243 -2.06475 33885 ft 464 kts 44°
2026-04-29 09:36 43.17023 -2.00547 33890 ft 464 kts 44°
2026-04-29 09:36 43.21808 -1.94596 33882 ft 465 kts 44°
2026-04-29 09:37 43.26598 -1.88626 33861 ft 466 kts 44°
2026-04-29 09:37 43.31477 -1.82750 33864 ft 469 kts 37°
2026-04-29 09:38 43.37127 -1.78282 33885 ft 468 kts 27°
2026-04-29 09:38 43.42733 -1.73711 33911 ft 469 kts 33°
2026-04-29 09:39 43.48127 -1.68697 33900 ft 471 kts 34°
2026-04-29 09:39 43.53570 -1.63633 33876 ft 472 kts 34°
2026-04-29 09:40 43.59035 -1.58632 33885 ft 470 kts 33°
2026-04-29 09:40 43.64488 -1.53677 33864 ft 468 kts 33°
2026-04-29 09:41 43.69899 -1.48755 33878 ft 463 kts 33°
2026-04-29 09:41 43.75271 -1.43855 33888 ft 462 kts 33°
2026-04-29 09:42 43.80677 -1.38920 33904 ft 471 kts 33°
2026-04-29 09:42 43.86142 -1.33906 33858 ft 471 kts 33°
2026-04-29 09:43 43.91572 -1.28910 33870 ft 466 kts 33°
2026-04-29 09:43 43.96984 -1.23925 33870 ft 466 kts 33°
2026-04-29 09:44 44.02361 -1.18961 33891 ft 463 kts 33°
2026-04-29 09:44 44.07731 -1.13994 33876 ft 464 kts 33°
2026-04-29 09:45 44.13110 -1.09008 33886 ft 465 kts 33°
2026-04-29 09:45 44.18493 -1.04006 33894 ft 466 kts 33°
2026-04-29 09:46 44.23896 -0.98974 33900 ft 468 kts 33°
2026-04-29 09:46 44.29282 -0.93946 33891 ft 470 kts 33°
2026-04-29 09:47 44.34724 -0.88855 33900 ft 471 kts 33°
2026-04-29 09:47 44.40208 -0.83805 33891 ft 471 kts 28°
2026-04-29 09:48 44.46137 -0.79945 33901 ft 470 kts 21°
2026-04-29 09:48 44.52139 -0.76426 33919 ft 472 kts 20°
2026-04-29 09:49 44.58140 -0.72854 33898 ft 464 kts 21°
2026-04-29 09:49 44.64061 -0.69251 33900 ft 465 kts 21°
2026-04-29 09:50 44.70000 -0.65603 33913 ft 464 kts 21°
2026-04-29 09:50 44.75918 -0.61954 33913 ft 464 kts 21°
2026-04-29 09:51 44.81808 -0.58317 33913 ft 465 kts 21°
2026-04-29 09:51 44.87731 -0.54654 33916 ft 465 kts 21°
2026-04-29 09:52 44.93676 -0.50969 33919 ft 466 kts 21°
2026-04-29 09:52 44.99617 -0.47278 33920 ft 467 kts 21°
2026-04-29 09:53 45.05559 -0.43577 33916 ft 467 kts 21°
2026-04-29 09:53 45.11510 -0.39863 33923 ft 467 kts 21°
2026-04-29 09:54 45.17467 -0.36137 33911 ft 470 kts 21°
2026-04-29 09:54 45.23402 -0.32415 33922 ft 469 kts 21°
2026-04-29 09:55 45.29358 -0.28671 33915 ft 467 kts 21°
2026-04-29 09:55 45.35290 -0.24934 33920 ft 465 kts 21°
2026-04-29 09:56 45.41196 -0.21204 33934 ft 464 kts 20°
2026-04-29 09:56 45.47085 -0.17478 33928 ft 463 kts 20°
2026-04-29 09:57 45.52976 -0.13742 33940 ft 464 kts 21°
2026-04-29 09:57 45.58887 -0.09986 33950 ft 466 kts 21°
2026-04-29 09:58 45.64813 -0.06210 33935 ft 467 kts 21°
2026-04-29 09:58 45.70742 -0.02423 33926 ft 466 kts 21°
2026-04-29 09:59 45.76658 0.01366 33926 ft 465 kts 20°
2026-04-29 09:59 45.82542 0.05142 33928 ft 463 kts 20°
2026-04-29 10:00 45.88414 0.08918 33933 ft 461 kts 20°
2026-04-29 10:00 45.94262 0.12688 33939 ft 461 kts 20°
2026-04-29 10:01 46.00109 0.16466 33947 ft 461 kts 20°
2026-04-29 10:01 46.05955 0.20252 33936 ft 461 kts 20°
2026-04-29 10:02 46.11806 0.24050 33934 ft 461 kts 20°
2026-04-29 10:02 46.17653 0.27855 33957 ft 461 kts 20°
2026-04-29 10:03 46.23512 0.31676 33943 ft 462 kts 20°
2026-04-29 10:03 46.29362 0.35501 33950 ft 462 kts 20°
2026-04-29 10:04 46.35175 0.39310 33946 ft 461 kts 20°
2026-04-29 10:04 46.41004 0.43140 33951 ft 459 kts 20°
2026-04-29 10:05 46.46795 0.46954 33954 ft 455 kts 20°
2026-04-29 10:05 46.52582 0.50773 33957 ft 453 kts 20°
2026-04-29 10:06 46.58410 0.54030 33967 ft 444 kts
2026-04-29 10:06 46.64428 0.55965 33961 ft 443 kts
2026-04-29 10:07 46.70412 0.57839 33953 ft 443 kts
2026-04-29 10:07 46.76435 0.59795 33951 ft 444 kts
2026-04-29 10:08 46.82467 0.61792 33958 ft 445 kts
2026-04-29 10:08 46.88519 0.63804 33960 ft 446 kts
2026-04-29 10:09 46.94585 0.65823 33960 ft 447 kts
2026-04-29 10:09 47.00657 0.67848 33971 ft 448 kts
2026-04-29 10:10 47.06760 0.69600 33962 ft 443 kts
2026-04-29 10:10 47.12891 0.70222 33962 ft 442 kts 358°
2026-04-29 10:11 47.19022 0.70730 33980 ft 441 kts 359°
2026-04-29 10:11 47.25152 0.71326 33983 ft 441 kts 360°
2026-04-29 10:12 47.31267 0.71967 33993 ft 440 kts 360°
2026-04-29 10:12 47.37375 0.72612 33992 ft 440 kts 360°
2026-04-29 10:13 47.43467 0.73253 33999 ft 439 kts
2026-04-29 10:13 47.49563 0.74023 33989 ft 441 kts
2026-04-29 10:14 47.55479 0.76588 33994 ft 445 kts 16°
2026-04-29 10:14 47.61333 0.79595 34004 ft 445 kts 16°
2026-04-29 10:15 47.67185 0.82535 33987 ft 444 kts 15°
2026-04-29 10:15 47.73000 0.85406 33993 ft 442 kts 15°
2026-04-29 10:16 47.77879 0.87815 33989 ft 440 kts 15°
2026-04-29 10:16 47.84649 0.91171 34001 ft 437 kts 15°
2026-04-29 10:17 47.90351 0.94045 34007 ft 434 kts 15°
2026-04-29 10:17 47.96067 0.96944 34011 ft 433 kts 15°
2026-04-29 10:18 48.00805 0.99349 34022 ft 433 kts 15°
2026-04-29 10:18 48.06514 1.02250 34030 ft 434 kts 15°
2026-04-29 10:19 48.12240 1.05167 34034 ft 435 kts 15°
2026-04-29 10:19 48.17974 1.08094 34038 ft 436 kts 15°
2026-04-29 10:20 48.23690 1.11016 34050 ft 437 kts 15°
2026-04-29 10:20 48.29468 1.13958 34045 ft 439 kts 15°
2026-04-29 10:21 48.35256 1.16910 34051 ft 440 kts 15°
2026-04-29 10:21 48.41049 1.19875 34058 ft 440 kts 15°
2026-04-29 10:22 48.46848 1.22852 34063 ft 440 kts 15°
2026-04-29 10:22 48.52645 1.25833 34067 ft 439 kts 15°
2026-04-29 10:23 48.58434 1.28796 34074 ft 438 kts 15°
2026-04-29 10:23 48.64202 1.31694 34070 ft 435 kts 15°
2026-04-29 10:24 48.69893 1.34559 34080 ft 432 kts 15°
2026-04-29 10:24 48.75579 1.37435 34086 ft 430 kts 15°
2026-04-29 10:25 48.81231 1.40303 34091 ft 428 kts 15°
2026-04-29 10:25 48.86865 1.43169 34104 ft 427 kts 15°
2026-04-29 10:26 48.92510 1.46048 34109 ft 428 kts 15°
2026-04-29 10:26 48.98183 1.48837 34102 ft 427 kts
2026-04-29 10:27 49.06966 1.50886 34112 ft 426 kts
2026-04-29 10:28 49.12844 1.52183 34103 ft 426 kts
2026-04-29 10:28 49.18671 1.53548 34104 ft 426 kts
2026-04-29 10:29 49.24493 1.55330 34103 ft 430 kts 18°
2026-04-29 10:29 49.27188 1.57327 34126 ft 432 kts 29°
2026-04-29 10:29 49.29596 1.60107 34126 ft 436 kts 40°
2026-04-29 10:30 49.33957 1.66561 34124 ft 436 kts 42°
2026-04-29 10:30 49.38284 1.73043 34140 ft 435 kts 41°
2026-04-29 10:31 49.42652 1.79483 34127 ft 435 kts 41°
2026-04-29 10:31 49.47016 1.85891 34134 ft 433 kts 41°
2026-04-29 10:32 49.51360 1.92287 34154 ft 432 kts 40°
2026-04-29 10:32 49.55693 1.98688 34152 ft 431 kts 40°
2026-04-29 10:33 49.60004 2.05069 34075 ft 426 kts 40°
2026-04-29 10:33 49.62125 2.08215 33751 ft 420 kts 40°
2026-04-29 10:33 49.64190 2.11283 33405 ft 416 kts 40°
2026-04-29 10:33 49.66286 2.14399 33065 ft 412 kts 40°
2026-04-29 10:34 49.68342 2.17459 32687 ft 409 kts 41°
2026-04-29 10:34 49.70385 2.20503 32327 ft 406 kts 41°
2026-04-29 10:34 49.72385 2.23487 31974 ft 404 kts 41°
2026-04-29 10:34 49.74396 2.26492 31603 ft 402 kts 41°
2026-04-29 10:35 49.76398 2.29486 31269 ft 399 kts 41°
2026-04-29 10:35 49.78386 2.32465 30929 ft 397 kts 41°
2026-04-29 10:35 49.80363 2.35428 30583 ft 395 kts 41°
2026-04-29 10:35 49.82333 2.38386 30235 ft 393 kts 41°
2026-04-29 10:36 49.84287 2.41322 29850 ft 391 kts 41°
2026-04-29 10:36 49.86231 2.44249 29470 ft 388 kts 41°
2026-04-29 10:36 49.88159 2.47154 29126 ft 384 kts 41°
2026-04-29 10:36 49.90067 2.50032 28742 ft 382 kts 41°
2026-04-29 10:37 49.91960 2.52891 28413 ft 378 kts 41°
2026-04-29 10:37 49.93836 2.55727 28082 ft 375 kts 42°
2026-04-29 10:37 49.95700 2.58547 27719 ft 372 kts 40°
2026-04-29 10:37 49.97536 2.61337 27449 ft 367 kts 40°
2026-04-29 10:38 49.99351 2.64102 27123 ft 364 kts 40°
2026-04-29 10:38 50.01152 2.66849 26780 ft 361 kts 40°
2026-04-29 10:38 50.02939 2.69579 26442 ft 358 kts 42°
2026-04-29 10:38 50.04709 2.72286 26109 ft 355 kts 43°
2026-04-29 10:39 50.06464 2.74975 25783 ft 353 kts 43°
2026-04-29 10:39 50.08205 2.77644 25460 ft 349 kts 43°
2026-04-29 10:39 50.09928 2.80288 25137 ft 347 kts 44°
2026-04-29 10:39 50.11641 2.82917 24816 ft 344 kts 44°
2026-04-29 10:40 50.13342 2.85529 24488 ft 342 kts 44°
2026-04-29 10:40 50.15028 2.88121 24173 ft 339 kts 45°
2026-04-29 10:40 50.16703 2.90698 23852 ft 337 kts 47°
2026-04-29 10:40 50.18360 2.93251 23501 ft 334 kts 48°
2026-04-29 10:41 50.20004 2.95790 23175 ft 330 kts 48°
2026-04-29 10:41 50.21607 2.98267 22868 ft 327 kts 48°
2026-04-29 10:41 50.23212 3.00750 22557 ft 323 kts 48°
2026-04-29 10:41 50.24805 3.03217 22238 ft 321 kts 47°
2026-04-29 10:42 50.26378 3.05655 21927 ft 318 kts 47°
2026-04-29 10:42 50.27940 3.08078 21626 ft 315 kts 47°
2026-04-29 10:42 50.29483 3.10475 21330 ft 312 kts 47°
2026-04-29 10:42 50.31021 3.12865 21015 ft 310 kts 47°
2026-04-29 10:43 50.32540 3.15229 20732 ft 307 kts 47°
2026-04-29 10:43 50.34048 3.17579 20427 ft 305 kts 47°
2026-04-29 10:43 50.35544 3.19912 20126 ft 303 kts 47°
2026-04-29 10:43 50.37032 3.22232 19839 ft 301 kts 47°
2026-04-29 10:44 50.38506 3.24528 19545 ft 298 kts 47°
2026-04-29 10:44 50.39970 3.26816 19267 ft 296 kts 47°
2026-04-29 10:44 50.41424 3.29090 19029 ft 292 kts 46°
2026-04-29 10:44 50.42862 3.31332 18744 ft 291 kts 47°
2026-04-29 10:45 50.44295 3.33566 18451 ft 290 kts 46°
2026-04-29 10:45 50.45719 3.35788 18119 ft 289 kts 46°
2026-04-29 10:45 50.47140 3.38009 17797 ft 287 kts 46°
2026-04-29 10:45 50.48548 3.40210 17508 ft 285 kts 47°
2026-04-29 10:46 50.49947 3.42397 17196 ft 283 kts 46°
2026-04-29 10:46 50.51339 3.44579 16892 ft 282 kts 47°
2026-04-29 10:46 50.52722 3.46746 16595 ft 280 kts 46°
2026-04-29 10:46 50.54082 3.48924 16275 ft 278 kts 52°
2026-04-29 10:47 50.54988 3.51516 16046 ft 274 kts 71°
2026-04-29 10:47 50.55562 3.54383 15807 ft 277 kts 73°
2026-04-29 10:47 50.56109 3.57320 15564 ft 284 kts 73°
2026-04-29 10:47 50.56661 3.60330 15306 ft 288 kts 73°
2026-04-29 10:48 50.57218 3.63355 15052 ft 289 kts 73°
2026-04-29 10:48 50.57781 3.66391 14784 ft 290 kts 73°
2026-04-29 10:48 50.58346 3.69427 14512 ft 287 kts 73°
2026-04-29 10:48 50.58907 3.72433 14242 ft 284 kts 73°
2026-04-29 10:49 50.59462 3.75399 13978 ft 282 kts 73°
2026-04-29 10:49 50.60014 3.78355 13708 ft 279 kts 73°
2026-04-29 10:49 50.60560 3.81274 13435 ft 277 kts 73°
2026-04-29 10:49 50.61099 3.84163 13161 ft 275 kts 73°
2026-04-29 10:50 50.61635 3.87042 12937 ft 272 kts 73°
2026-04-29 10:50 50.62167 3.89894 12685 ft 270 kts 73°
2026-04-29 10:50 50.62696 3.92734 12425 ft 269 kts 73°
2026-04-29 10:50 50.63182 3.95558 12184 ft 270 kts 81°
2026-04-29 10:51 50.63035 3.98485 11923 ft 271 kts 107°
2026-04-29 10:51 50.62021 4.00986 11648 ft 275 kts 134°
2026-04-29 10:51 50.60362 4.02489 11406 ft 281 kts 160°
2026-04-29 10:51 50.58407 4.02651 11169 ft 287 kts 187°
2026-04-29 10:52 50.56565 4.01411 10919 ft 294 kts 213°
2026-04-29 10:52 50.55086 3.99193 10712 ft 294 kts 224°
2026-04-29 10:52 50.53713 3.96805 10463 ft 294 kts 226°
2026-04-29 10:52 50.52354 3.94406 10213 ft 293 kts 226°
2026-04-29 10:53 50.51007 3.91996 9945 ft 293 kts 226°
2026-04-29 10:53 50.49675 3.89593 9670 ft 291 kts 226°
2026-04-29 10:53 50.48352 3.87196 9416 ft 289 kts 226°
2026-04-29 10:53 50.47033 3.84810 9149 ft 289 kts 226°
2026-04-29 10:54 50.45714 3.82441 8894 ft 287 kts 226°
2026-04-29 10:54 50.44405 3.80074 8626 ft 286 kts 225°
2026-04-29 10:54 50.43109 3.77711 8358 ft 285 kts 226°
2026-04-29 10:54 50.41829 3.75379 8241 ft 278 kts 226°
2026-04-29 10:55 50.40591 3.73123 8212 ft 268 kts 226°
2026-04-29 10:55 50.39393 3.70935 8053 ft 263 kts 226°
2026-04-29 10:55 50.38047 3.69035 7795 ft 258 kts 208°
2026-04-29 10:55 50.36522 3.67613 7557 ft 253 kts 195°
2026-04-29 10:56 50.34843 3.67293 7308 ft 239 kts 165°
2026-04-29 10:56 50.33272 3.67956 7104 ft 229 kts 152°
2026-04-29 10:56 50.32060 3.69346 6845 ft 214 kts 121°
2026-04-29 10:56 50.31373 3.71364 6621 ft 210 kts 112°
2026-04-29 10:57 50.30784 3.73465 6359 ft 208 kts 111°
2026-04-29 10:57 50.30224 3.75523 6085 ft 204 kts 111°
2026-04-29 10:57 50.29786 3.77594 5830 ft 198 kts 102°
2026-04-29 10:57 50.29511 3.79683 5562 ft 194 kts 100°
2026-04-29 10:58 50.29375 3.81748 5298 ft 189 kts 85°
2026-04-29 10:58 50.29579 3.83764 5074 ft 187 kts 83°
2026-04-29 10:58 50.29824 3.85759 4814 ft 188 kts 75°
2026-04-29 10:58 50.30323 3.87649 4558 ft 188 kts 69°
2026-04-29 10:59 50.30837 3.89509 4311 ft 185 kts 71°
2026-04-29 10:59 50.31335 3.91360 4104 ft 184 kts 72°
2026-04-29 10:59 50.31816 3.93187 3913 ft 180 kts 71°
2026-04-29 10:59 50.32291 3.95006 3708 ft 181 kts 72°
2026-04-29 11:00 50.32755 3.96796 3540 ft 179 kts 72°
2026-04-29 11:00 50.33223 3.98596 3331 ft 178 kts 73°
2026-04-29 11:00 50.33695 4.00383 3125 ft 177 kts 73°
2026-04-29 11:00 50.34153 4.02163 2895 ft 173 kts 72°
2026-04-29 11:01 50.34591 4.03882 2719 ft 167 kts 72°
2026-04-29 11:01 50.35019 4.05571 2544 ft 169 kts 72°
2026-04-29 11:01 50.35448 4.07266 2496 ft 167 kts 72°
2026-04-29 11:01 50.35884 4.08915 2498 ft 163 kts 72°
2026-04-29 11:02 50.36294 4.10546 2482 ft 158 kts 72°
2026-04-29 11:02 50.36699 4.12168 2488 ft 161 kts 72°
2026-04-29 11:02 50.37095 4.13744 2499 ft 152 kts 72°
2026-04-29 11:02 50.37469 4.15228 2477 ft 138 kts 73°
2026-04-29 11:03 50.37810 4.16584 2486 ft 132 kts 72°
2026-04-29 11:03 50.38146 4.17907 2490 ft 132 kts 73°
2026-04-29 11:03 50.38477 4.19316 2538 ft 144 kts 74°
2026-04-29 11:03 50.38856 4.20812 2494 ft 148 kts 72°
2026-04-29 11:04 50.39253 4.22244 2472 ft 139 kts 71°
2026-04-29 11:04 50.39657 4.23608 2501 ft 140 kts 70°
2026-04-29 11:04 50.40074 4.25027 2501 ft 144 kts 71°
2026-04-29 11:04 50.40475 4.26395 2493 ft 134 kts 69°
2026-04-29 11:05 50.40874 4.27744 2518 ft 141 kts 69°
2026-04-29 11:05 50.41288 4.29160 2543 ft 140 kts 71°
2026-04-29 11:05 50.41688 4.30537 2521 ft 134 kts 71°
2026-04-29 11:05 50.41951 4.31394 2523 ft 134 kts 70°
2026-04-29 11:06 50.42344 4.32718 2388 ft 133 kts 71°
2026-04-29 11:06 50.42749 4.34020 2188 ft 133 kts 68°
2026-04-29 11:06 50.43146 4.35330 1963 ft 135 kts 69°
2026-04-29 11:06 50.43494 4.36659 1839 ft 130 kts 69°
2026-04-29 11:07 50.43838 4.37953 1617 ft 128 kts 66°
2026-04-29 11:07 50.44223 4.39209 1393 ft 128 kts 64°
2026-04-29 11:07 50.44582 4.40484 1159 ft 129 kts 67°
2026-04-29 11:07 50.44957 4.41766 1004 ft 131 kts 65°
2026-04-29 11:08 50.45342 4.43058 794 ft 131 kts 64°
2026-04-29 11:08 50.45722 4.44350 667 ft 128 kts 63°
2026-04-29 11:08 50.46054 4.45511 628 ft 96 kts 66°
2026-04-29 11:08 50.46240 4.46160 618 ft 41 kts 65°
2026-04-29 11:09 50.46352 4.46546 615 ft 37 kts 66°
2026-04-29 11:09 50.46450 4.46859 623 ft 24 kts 47°
2026-04-29 11:09 50.46569 4.46852 616 ft 4 kts 336°
2026-04-29 11:09 50.46569 4.46851 612 ft 0 kts 336°
2026-04-29 11:10 50.46577 4.46846 620 ft 3 kts 336°
2026-04-29 11:10 50.46613 4.46820 623 ft 11 kts 335°
2026-04-29 11:11 50.46705 4.46768 620 ft 16 kts
2026-04-29 11:11 50.46755 4.46914 611 ft 15 kts 69°
2026-04-29 11:11 50.46798 4.47065 618 ft 15 kts 65°
2026-04-29 11:11 50.46829 4.47129 614 ft 3 kts
2026-04-29 11:12 50.46851 4.47113 609 ft 3 kts 335°
2026-04-29 11:12 50.46866 4.47102 611 ft 0 kts 335°